This is the latest recevied weather packets stored in our database for station/object KE5SXT-2. If no packets are shown the sender has not sent any weather packets the latest 10 day(s).
| Time | Temp. | Humidity | Pressure | Rain* | Wind** | Luminosity | Snow |
|---|---|---|---|---|---|---|---|
| 1777850421 | 26.11° C | 33% | 1014.9 hPa | 0 mm | - | - | - |
| 1777848622 | 26.11° C | 34% | 1015.5 hPa | 0 mm | - | - | - |
| 1777844421 | 25.56° C | 34% | 1016.5 hPa | 0 mm | - | - | - |
| 1777842621 | 25.56° C | 34% | 1017.3 hPa | 0 mm | - | - | - |
| 1777842021 | 25° C | 34% | 1017.5 hPa | 0 mm | - | - | - |
| 1777836620 | 24.44° C | 37% | 1019.3 hPa | 0 mm | - | - | - |
| 1777836021 | 23.89° C | 37% | 1019.4 hPa | 0 mm | - | - | - |
| 1777833020 | 22.78° C | 39% | 1020.4 hPa | 0 mm | - | - | - |
| 1777832420 | 23.33° C | 40% | 1020.6 hPa | 0 mm | - | - | - |
| 1777831846 | 22.78° C | 40% | 1020.8 hPa | 0 mm | - | - | - |
| 1777831220 | 22.78° C | 41% | 1021.1 hPa | 0 mm | - | - | - |
| 1777830620 | 22.22° C | 42% | 1021.3 hPa | 0 mm | - | - | - |
| 1777830071 | 22.22° C | 43% | 1021.4 hPa | 0 mm | - | - | - |
| 1777827020 | 20.56° C | 49% | 1022.2 hPa | 0 mm | - | - | - |
| 1777825820 | 20° C | 50% | 1022.5 hPa | 0 mm | - | - | - |
| 1777824020 | 19.44° C | 53% | 1022.7 hPa | 0 mm | - | - | - |
| 1777818620 | 17.22° C | 61% | 1022.7 hPa | 0 mm | - | - | - |
| 1777817445 | 16.67° C | 63% | 1022.7 hPa | 0 mm | - | - | - |
| 1777816221 | 15.56° C | 66% | 1022.7 hPa | 0 mm | - | - | - |
| 1777815620 | 15.56° C | 67% | 1022.7 hPa | 0 mm | - | - | - |
| 1777815020 | 15° C | 70% | 1022.5 hPa | 0 mm | - | - | - |
| 1777812022 | 12.78° C | 76% | 1022.1 hPa | 0 mm | - | - | - |
| 1777811422 | 12.22° C | 77% | 1021.9 hPa | 0 mm | - | - | - |
| 1777809622 | 12.22° C | 78% | 1021.7 hPa | 0 mm | - | - | - |
| 1777805422 | 12.78° C | 77% | 1021.4 hPa | 0 mm | - | - | - |
* Rain latest hour (hover to see other rain measurements)
** Current wind speed in m/s (hover to see current wind gust speed)